[[{"header":{"parameterUnit":"m.s-1","parameterCategory":1,"la1":30.2991,"la2":30.254,"lo1":-89.0895,"lo2":-89.0444,"dy":0.0017,"dx":0.0017,"nx":28,"ny":28,"refTime":"2026-02-12T03:00:00:Z","depth":0,"parameterNumber":2,"parameterNumberName":"U-component_of_WINDS"},"data":[0,0,0,0,0,0,0,0,0,0,0,0,0,0,0,0,0,0,0,0,0,0,0,0,0,0,0,0,0,0,0,0,0,0,0,0,0,0,0,0,0,0,0,0,0,0,0,0,0,0,0,0,0,0,0,0,0,0,-0.8276,-0.8276,0,-0.8246,-0.8246,-0.8245,-0.8211,-0.821,-0.821,-0.8209,-0.818,-0.818,-0.818,0,0,0,0,0,0,0,0,0,0,0,0,0,-0.8306,-0.8306,-0.8276,-0.8276,-0.8276,-0.8246,-0.8246,-0.8245,-0.8211,-0.821,-0.821,-0.8209,-0.818,-0.818,-0.818,0,0,0,0,0,0,0,0,0,0,0,0,0,-0.8286,-0.8306,-0.8276,-0.8255,-0.8253,-0.8246,-0.8246,-0.8245,-0.8211,-0.821,-0.821,-0.8209,-0.8181,-0.818,-0.818,-0.8193,0,0,-0.8178,-0.8178,0,0,0,0,0,0,0,0,-0.8287,-0.8285,-0.8258,-0.8256,-0.8254,-0.8231,-0.8246,-0.8228,-0.8211,-0.8227,-0.8209,-0.8209,-0.8198,-0.8196,-0.8192,-0.8191,-0.819,-0.8178,-0.8178,-0.8178,-0.8178,0,0,0,0,0,0,0,-0.8289,-0.8286,-0.8264,-0.8258,-0.8255,-0.8247,-0.8244,-0.8242,-0.8217,-0.8226,-0.8223,-0.822,-0.8197,-0.8193,-0.8191,-0.819,-0.8178,-0.8178,-0.8178,-0.8178,-0.8199,-0.8199,0,0,0,0,0,0,-0.8293,-0.8288,-0.8265,-0.8263,-0.8269,-0.8247,-0.8243,-0.8239,-0.8217,-0.8213,-0.822,-0.8218,-0.8194,-0.8192,-0.819,-0.8205,-0.8178,-0.8177,-0.8177,-0.8198,-0.8199,-0.82,0,0,0,0,0,0,-0.8294,-0.8292,-0.8267,-0.8275,-0.8271,-0.8248,-0.8244,-0.8239,-0.8235,-0.8213,-0.8209,-0.8221,-0.8193,-0.8191,-0.8192,-0.8203,-0.8177,-0.8177,-0.8197,-0.8198,-0.8199,-0.8233,0,0,0,0,0,0,-0.8295,-0.8292,-0.8296,-0.8275,-0.8271,-0.8269,-0.8244,-0.8239,-0.8234,-0.8231,-0.8213,-0.8209,-0.8192,-0.8193,-0.8192,-0.8202,-0.8177,-0.8196,-0.8197,-0.8199,-0.8231,-0.8236,-0.824,0,0,0,0,0,-0.8296,-0.8307,-0.8297,-0.8294,-0.8276,-0.827,-0.8267,-0.8247,-0.8235,-0.824,-0.8226,-0.8209,-0.8202,-0.8194,-0.8192,-0.8202,-0.8195,-0.8197,-0.8199,-0.8229,-0.8235,-0.8239,0,0,0,0,0,0,-0.8331,-0.8304,-0.8292,-0.8297,-0.8286,-0.8264,-0.8269,-0.8254,-0.8246,-0.8244,-0.822,-0.8216,-0.8221,-0.8211,-0.8203,-0.8214,-0.8196,-0.8198,-0.822,-0.8225,-0.8229,-0.8232,-0.8176,0,0,0,0,0,-0.8339,-0.8336,-0.8313,-0.8319,-0.8314,-0.8293,-0.8289,-0.8275,-0.8263,-0.8258,-0.8244,-0.8233,-0.8229,-0.8226,-0.822,-0.8229,-0.8225,-0.8236,-0.824,-0.8243,-0.8245,-0.825,-0.8255,-0.8206,-0.8206,-0.8206,0,0,-0.8356,-0.8341,-0.8341,-0.8326,-0.8315,-0.8314,-0.8289,-0.8287,-0.8286,-0.8258,-0.8259,-0.8248,-0.8235,-0.824,-0.8242,-0.8233,-0.8258,-0.8245,-0.8248,-0.8249,-0.8253,-0.8257,-0.8262,-0.8207,-0.8207,-0.8207,0,0,-0.8386,-0.8374,-0.8378,-0.8368,-0.8353,-0.8338,-0.834,-0.832,-0.8312,-0.8312,-0.8291,-0.8289,-0.8281,-0.8273,-0.8267,-0.8294,-0.8279,-0.8293,-0.8315,-0.832,-0.8324,-0.8327,-0.8338,-0.8342,-0.8295,-0.8295,-0.8295,0,-0.841,-0.8405,-0.8383,-0.8383,-0.8377,-0.8351,-0.8356,-0.8347,-0.8331,-0.8328,-0.8318,-0.8308,-0.8297,-0.83,-0.8307,-0.8303,-0.8304,-0.8296,-0.8325,-0.8328,-0.8331,-0.8341,-0.8345,-0.8297,-0.8296,-0.8296,-0.8296,0,-0.8435,-0.8432,-0.8438,-0.8422,-0.8417,-0.842,-0.8398,-0.8396,-0.8382,-0.8369,-0.837,-0.8356,-0.8347,-0.8347,-0.8333,-0.8349,-0.8344,-0.8329,-0.8311,-0.8338,-0.8347,-0.8351,-0.8299,-0.8299,-0.8298,-0.8298,0,0,-0.8487,-0.8459,-0.8462,-0.8455,-0.8436,-0.8433,-0.8435,-0.8426,-0.8425,-0.8414,-0.8416,-0.841,-0.8396,-0.839,-0.8376,-0.838,-0.8404,-0.8365,-0.8365,-0.8374,-0.8421,-0.8434,-0.8438,-0.8393,-0.8394,-0.8394,-0.8423,0,-0.8515,-0.8516,-0.8496,-0.8502,-0.85,-0.8475,-0.8476,-0.8465,-0.8453,-0.8449,-0.8436,-0.8432,-0.8414,-0.8411,-0.8414,-0.84,-0.8413,-0.8398,-0.8396,-0.8396,-0.8401,-0.8443,-0.8455,-0.8483,-0.8426,-0.8427,-0.8427,0,-0.8548,-0.8539,-0.8545,-0.8526,-0.8524,-0.8526,-0.8517,-0.8513,-0.85,-0.8491,-0.8485,-0.8468,-0.8469,-0.845,-0.8452,-0.8442,-0.844,-0.8433,-0.8433,-0.8434,-0.8414,-0.8446,-0.8492,-0.8496,-0.8433,-0.8432,-0.8432,0,-0.8587,-0.8576,-0.8579,-0.8573,-0.8551,-0.8553,-0.8544,-0.853,-0.8526,-0.8518,-0.8515,-0.8507,-0.8504,-0.8498,-0.848,-0.8468,-0.8484,-0.8464,-0.8478,-0.8478,-0.8484,-0.8484,-0.8531,-0.848,-0.848,-0.848,-0.8479,0,-0.8621,-0.8626,-0.8596,-0.8598,-0.8603,-0.858,-0.8586,-0.8575,-0.8563,-0.8562,-0.854,-0.854,-0.8515,-0.8513,-0.8499,-0.8503,-0.8501,-0.8495,-0.8491,-0.8497,-0.8499,-0.8497,-0.8495,-0.8481,-0.848,-0.848,-0.848,0,-0.8666,-0.8646,-0.8647,-0.8626,-0.8621,-0.8626,-0.8608,-0.8609,-0.8595,-0.8595,-0.8594,-0.8572,-0.8568,-0.8549,-0.8541,-0.8531,-0.8541,-0.8533,-0.8546,-0.8544,-0.8559,-0.8558,-0.8608,-0.8614,-0.8557,-0.8558,-0.8558,0,-0.869,-0.8693,-0.8672,-0.867,-0.8661,-0.8658,-0.8654,-0.8631,-0.8628,-0.8614,-0.8617,-0.8611,-0.8606,-0.8601,-0.8585,-0.8579,-0.8572,-0.8589,-0.8571,-0.8577,-0.8574,-0.8575,-0.8575,-0.8594,-0.8595,-0.8595,-0.8596,0,-0.8734,-0.8724,-0.8719,-0.871,-0.8706,-0.8698,-0.8689,-0.8688,-0.8663,-0.8661,-0.8656,-0.8652,-0.8644,-0.8639,-0.863,-0.8621,-0.8605,-0.8602,-0.8605,-0.8612,-0.862,-0.8618,-0.8558,-0.8601,-0.8601,-0.86,-0.86,-0.86,-0.877,-0.8772,-0.8758,-0.8753,-0.8743,-0.8736,-0.8736,-0.8722,-0.8717,-0.8709,-0.8695,-0.8693,-0.8681,-0.8667,-0.866,-0.8658,-0.8649,-0.8653,-0.8654,-0.8656,-0.866,-0.8619,-0.8657,-0.8656,-0.8656,-0.8656,-0.8656,0,-0.8815,-0.8804,-0.88,-0.8788,-0.8784,-0.8767,-0.8757,-0.8755,-0.8753,-0.8742,-0.8737,-0.8733,-0.8728,-0.8712,-0.8705,-0.8708,-0.87,-0.8707,-0.8707,-0.8706,-0.8668,-0.8667,-0.8713,-0.8713,-0.8713,-0.8713,-0.8713,-0.8713,-0.8838,-0.8841,-0.8829,-0.8828,-0.8817,-0.8815,-0.881,-0.8803,-0.8794,-0.879,-0.8786,-0.8775,-0.8763,-0.8755,-0.875,-0.8746,-0.8745,-0.8755,-0.8748,-0.8714,-0.8708,-0.8703,-0.8702,-0.8755,-0.8755,-0.8786,-0.8786,-0.8787]},{"header":{"parameterUnit":"m.s-1","parameterCategory":1,"la1":30.2991,"la2":30.254,"lo1":-89.0895,"lo2":-89.0444,"dy":0.0017,"dx":0.0017,"nx":28,"ny":28,"refTime":"2026-02-12T03:00:00:Z","depth":0,"parameterNumber":3,"parameterNumberName":"V-component_of_WINDS"},"data":[0,0,0,0,0,0,0,0,0,0,0,0,0,0,0,0,0,0,0,0,0,0,0,0,0,0,0,0,0,0,0,0,0,0,0,0,0,0,0,0,0,0,0,0,0,0,0,0,0,0,0,0,0,0,0,0,0,0,-0.7935,-0.7935,0,-0.7927,-0.7927,-0.7927,-0.7914,-0.7914,-0.7914,-0.7914,-0.7905,-0.7905,-0.7905,0,0,0,0,0,0,0,0,0,0,0,0,0,-0.794,-0.794,-0.7935,-0.7935,-0.7935,-0.7927,-0.7927,-0.7927,-0.7914,-0.7914,-0.7914,-0.7914,-0.7905,-0.7905,-0.7905,0,0,0,0,0,0,0,0,0,0,0,0,0,-0.7935,-0.794,-0.7935,-0.7928,-0.7927,-0.7927,-0.7927,-0.7927,-0.7914,-0.7914,-0.7914,-0.7913,-0.7905,-0.7905,-0.7905,-0.7912,0,0,-0.7905,-0.7905,0,0,0,0,0,0,0,0,-0.7936,-0.7935,-0.7929,-0.7928,-0.7927,-0.7921,-0.7925,-0.7922,-0.7914,-0.7919,-0.7914,-0.7913,-0.7911,-0.791,-0.791,-0.7912,-0.7911,-0.7905,-0.7905,-0.7905,-0.7905,0,0,0,0,0,0,0,-0.7936,-0.7935,-0.7932,-0.7929,-0.7928,-0.7925,-0.7924,-0.7925,-0.7917,-0.7919,-0.7918,-0.7917,-0.791,-0.791,-0.7909,-0.7911,-0.7905,-0.7905,-0.7905,-0.7905,-0.7919,-0.7919,0,0,0,0,0,0,-0.7937,-0.7936,-0.7932,-0.7932,-0.7931,-0.7925,-0.7924,-0.7924,-0.7917,-0.7916,-0.7917,-0.7916,-0.791,-0.7909,-0.7909,-0.7917,-0.7905,-0.7905,-0.7905,-0.7918,-0.7919,-0.7919,0,0,0,0,0,0,-0.7937,-0.7937,-0.7932,-0.7933,-0.7933,-0.7925,-0.7925,-0.7924,-0.7923,-0.7916,-0.7914,-0.7918,-0.791,-0.7909,-0.7911,-0.7917,-0.7905,-0.7905,-0.7918,-0.7919,-0.7919,-0.7933,0,0,0,0,0,0,-0.7938,-0.7937,-0.794,-0.7934,-0.7933,-0.7935,-0.7925,-0.7924,-0.7923,-0.7922,-0.7916,-0.7915,-0.7909,-0.7912,-0.7911,-0.7916,-0.7905,-0.7917,-0.7918,-0.7919,-0.7932,-0.7934,-0.7935,0,0,0,0,0,-0.7938,-0.7944,-0.794,-0.7939,-0.7935,-0.7935,-0.7935,-0.7928,-0.7923,-0.7926,-0.7921,-0.7915,-0.7916,-0.7912,-0.7912,-0.7917,-0.7917,-0.7918,-0.7919,-0.7931,-0.7933,-0.7935,0,0,0,0,0,0,-0.795,-0.7943,-0.7938,-0.7942,-0.794,-0.7933,-0.7936,-0.7931,-0.7929,-0.7928,-0.792,-0.7919,-0.7923,-0.792,-0.7915,-0.7923,-0.7916,-0.7916,-0.7925,-0.7927,-0.7929,-0.793,-0.7905,0,0,0,0,0,-0.7953,-0.7954,-0.7947,-0.7951,-0.795,-0.7943,-0.7943,-0.7938,-0.7935,-0.7934,-0.793,-0.7927,-0.7927,-0.7926,-0.7926,-0.7931,-0.793,-0.7934,-0.7936,-0.7938,-0.7939,-0.7942,-0.7944,-0.7922,-0.7922,-0.7922,0,0,-0.796,-0.7956,-0.7957,-0.7954,-0.7951,-0.7952,-0.7942,-0.7944,-0.7944,-0.7934,-0.7936,-0.7933,-0.7929,-0.7934,-0.7935,-0.7931,-0.7944,-0.7939,-0.794,-0.794,-0.7943,-0.7945,-0.7947,-0.7923,-0.7922,-0.7922,0,0,-0.7973,-0.7969,-0.7973,-0.797,-0.7967,-0.7962,-0.7963,-0.7957,-0.7955,-0.7957,-0.795,-0.795,-0.795,-0.7948,-0.7947,-0.7959,-0.7953,-0.7959,-0.7968,-0.7972,-0.7974,-0.7975,-0.798,-0.7982,-0.796,-0.796,-0.796,0,-0.7981,-0.7982,-0.7975,-0.7977,-0.7976,-0.7967,-0.7971,-0.7969,-0.7965,-0.7965,-0.796,-0.796,-0.7956,-0.796,-0.7964,-0.7963,-0.7964,-0.796,-0.7974,-0.7975,-0.7977,-0.7982,-0.7984,-0.796,-0.796,-0.796,-0.796,0,-0.7994,-0.7995,-0.7998,-0.7995,-0.7994,-0.7997,-0.799,-0.7991,-0.7986,-0.7982,-0.7985,-0.798,-0.7979,-0.798,-0.7975,-0.7983,-0.7981,-0.7975,-0.7968,-0.798,-0.7984,-0.7986,-0.7962,-0.7961,-0.7961,-0.7961,0,0,-0.8014,-0.8007,-0.8009,-0.8008,-0.8003,-0.8003,-0.8006,-0.8005,-0.8006,-0.8003,-0.8005,-0.8005,-0.8,-0.7999,-0.7994,-0.7997,-0.8008,-0.7991,-0.7991,-0.7995,-0.8018,-0.8023,-0.8025,-0.8004,-0.8004,-0.8005,-0.8019,0,-0.8027,-0.8031,-0.8025,-0.803,-0.8031,-0.8023,-0.8025,-0.8022,-0.8019,-0.8019,-0.8015,-0.8016,-0.8008,-0.8008,-0.801,-0.8006,-0.8013,-0.8005,-0.8007,-0.8007,-0.8009,-0.8028,-0.8033,-0.8046,-0.802,-0.8021,-0.8021,0,-0.8042,-0.8041,-0.8047,-0.8042,-0.8042,-0.8045,-0.8043,-0.8044,-0.8041,-0.8038,-0.8037,-0.8031,-0.8033,-0.8026,-0.8029,-0.8024,-0.8024,-0.8023,-0.8023,-0.8024,-0.8015,-0.803,-0.805,-0.8053,-0.8023,-0.8023,-0.8023,0,-0.8058,-0.8057,-0.8061,-0.806,-0.8055,-0.8057,-0.8054,-0.8051,-0.8051,-0.805,-0.805,-0.8049,-0.8048,-0.8048,-0.8042,-0.8037,-0.8047,-0.8038,-0.8045,-0.8046,-0.8049,-0.8049,-0.8071,-0.8047,-0.8047,-0.8047,-0.8047,0,-0.8073,-0.8077,-0.8068,-0.807,-0.8075,-0.8068,-0.8072,-0.8069,-0.8067,-0.8068,-0.806,-0.8062,-0.8054,-0.8055,-0.8051,-0.8055,-0.8054,-0.8053,-0.8052,-0.8054,-0.8055,-0.8055,-0.8054,-0.8048,-0.8047,-0.8047,-0.8047,0,-0.8091,-0.8085,-0.8089,-0.8084,-0.8082,-0.8086,-0.8082,-0.8084,-0.808,-0.8082,-0.8082,-0.8076,-0.8077,-0.8071,-0.8071,-0.8068,-0.8075,-0.8071,-0.8076,-0.8075,-0.8083,-0.8083,-0.8107,-0.811,-0.8083,-0.8084,-0.8084,0,-0.8102,-0.8105,-0.81,-0.8101,-0.8099,-0.81,-0.81,-0.8093,-0.8093,-0.8091,-0.8093,-0.8094,-0.8094,-0.8096,-0.8091,-0.8091,-0.8089,-0.8097,-0.8089,-0.8091,-0.809,-0.809,-0.8091,-0.8099,-0.8099,-0.81,-0.81,0,-0.8121,-0.8118,-0.8119,-0.8118,-0.8119,-0.8118,-0.8117,-0.8118,-0.811,-0.8111,-0.8112,-0.8112,-0.8112,-0.8113,-0.8112,-0.811,-0.8104,-0.8102,-0.8104,-0.8107,-0.811,-0.811,-0.8082,-0.8102,-0.8102,-0.8102,-0.8102,-0.8101,-0.8137,-0.8139,-0.8137,-0.8138,-0.8136,-0.8135,-0.8137,-0.8133,-0.8134,-0.8134,-0.8129,-0.8131,-0.8129,-0.8127,-0.8126,-0.8128,-0.8124,-0.8126,-0.8127,-0.8128,-0.813,-0.8109,-0.8127,-0.8127,-0.8127,-0.8127,-0.8127,0,-0.8157,-0.8155,-0.8156,-0.8154,-0.8155,-0.8149,-0.8148,-0.8149,-0.8151,-0.8149,-0.8149,-0.8151,-0.8152,-0.8147,-0.8148,-0.815,-0.8147,-0.815,-0.8151,-0.8151,-0.8133,-0.8131,-0.8153,-0.8153,-0.8153,-0.8153,-0.8153,-0.8153,-0.8167,-0.8172,-0.8169,-0.8173,-0.8171,-0.8173,-0.8173,-0.8172,-0.817,-0.8173,-0.8173,-0.817,-0.8168,-0.8168,-0.8169,-0.8167,-0.8168,-0.8173,-0.8171,-0.8154,-0.8152,-0.8149,-0.8148,-0.8173,-0.8173,-0.8188,-0.8189,-0.8189]}]]